Aeroporto :
LOGIN :

Iscrizione | Disclaimer

   EN    FR    IT 

 










Sommario :    VFR   VFR Marginale   IFR   IFR Intensivo   IFR Molto Intensivo
Visibilità : 
Base nubi : 
>= 8 km
>= 3000ft
5 / 8 km
1000 / 3000 ft
1500m / 5 km
500 / 1000 ft
800 / 1500m
200 / 500 ft
< 800m
< 200 ft
Simboli :   Temporali  Nebbia  Neve Forte  Precipitazioni Forti  Vento > 20 kt
SIGMETs :   Varie  Temporali  Ghiacco  Turbolenza  Onda orograficha  Ceneri Vulcaniche






- Altitudine del aeroporto : 100 ft
- Codice IATA : DCI


LIED - Decimomannu Air Base

ULTIMO METAR :
  • 250055Z 29003KT 9999 FEW050 09/07 Q1021 RMK FEW VIS MIN 9999 WIND THR35 31003KT WIND THR17 30003KT BLU

METARs OBSOLETI :
  • 242355Z 35004KT 9999 FEW050 10/08 Q1022 RMK FEW VIS MIN 9999 WIND THR35 35003KT WIND THR17 36003KT BLU
  • 242255Z 30004KT 9999 FEW050 11/09 Q1022 RMK FEW VIS MIN 9999 WIND THR35 30004KT WIND THR17 32004KT BLU

TAF TAF LIED
Valido dal 25 a 00 ore il 25 a 09 ore UTC


242300Z 2500/2509 32005KT 9999 SCT025



MetMap, La meteo Aeronautica in un colpo d'occhio ! - Copyright ORBIFLY Dicembre 2007 - Disclaimer

ORBIFLY MET'MAP TEAM :

Programmazione e sviluppo : Alexandra Zaïnal
Concezione : Baudouin d'Aumeries
Aiuto per la programmazione : Marc-Olivier Méhu
Supporto tecnico e logistico : Manuel Goepfert
Aiuto per la traduzione : Arnaldo La Scala

Contatto : metmap@orbifly.com




FONTI E CREDITI :

   NOAA